Flag Weather past 2 weeks in Abilene, Texas, U.S.A.

Now
49 °F

Clear.


Feels Like: 45 °F
Forecast: 45 / 71 °F
Wind: 10 mph from South

Location: Abilene Regional Airport

Current Time: Nov 28, 2014 at 4:06:46 AM

Latest Report: Nov 28, 2014 at 2:52 AM


Visibility: 10 mi

Pressure: 30.21 "Hg

Humidity: 55%

Dew point: 33 °F

Location of AbileneLocation

Historic Weather in Abilene — Graph

°F

Abilene temperature yesterday

Maximum temperature yesterday: 60 °F (at 2:52 PM)
Minimum temperature yesterday: 34 °F (at 7:52 AM)
Average temperature yesterday: 47 °F

Past Weeks' High & Low Weather Summary

 TemperatureHumidityPressure
High74 °F (Nov 23, 12:52 PM)100% (Nov 16, 8:52 AM)30.65 "Hg (Nov 16, 8:52 AM)
Low22 °F (Nov 17, 4:52 AM)16% (Nov 19, 3:52 PM)29.45 "Hg (Nov 23, 1:52 PM)
Average46 °F58%30.14 "Hg
* Reported Nov 13 2:52 AM — Nov 28 2:52 AM, Abilene, Weather by CustomWeather, © 2014

Note: Actual official high and low records may vary slightly from our data, if they occured in-between our weather recording intervals... More about our weather records

Advertising

Abilene weather history for previous 24 hours

 ConditionsComfort  
Time TempWeatherWind HumidityBarometerVisibility
2:52 AM
Nov 28
49 °FClear.10 mph55%30.21 "Hg10 mi
1:52 AM50 °FClear.13 mph50%30.22 "Hg10 mi
12:52 AM51 °FClear.16 mph48%30.24 "Hg10 mi
11:52 PM
Nov 27
51 °FClear.15 mph46%30.26 "Hg10 mi
10:52 PM50 °FClear.12 mph48%30.29 "Hg10 mi
9:52 PM49 °FClear.10 mph50%30.30 "Hg10 mi
8:52 PM47 °FClear.9 mph56%30.32 "Hg10 mi
7:52 PM47 °FClear.8 mph59%30.34 "Hg10 mi
6:52 PM49 °FClear.8 mph55%30.35 "Hg10 mi
5:52 PM53 °FClear.7 mph45%30.35 "Hg10 mi
4:52 PM58 °FSunny.13 mph36%30.35 "Hg10 mi
3:52 PM60 °FSunny.10 mph33%30.36 "Hg10 mi
2:52 PM60 °FSunny.9 mph32%30.37 "Hg10 mi
1:52 PM58 °FSunny.15 mph33%30.40 "Hg10 mi
12:52 PM56 °FSunny.10 mph34%30.44 "Hg10 mi
11:52 AM53 °FSunny.9 mph38%30.48 "Hg10 mi
10:52 AM50 °FSunny.7 mph38%30.52 "Hg10 mi
9:52 AM46 °FSunny.9 mph46%30.53 "Hg10 mi
8:52 AM40 °FSunny.7 mph65%30.52 "Hg10 mi
7:52 AM34 °FSunny.3 mph76%30.51 "Hg10 mi
6:52 AM38 °FClear.No wind63%30.50 "Hg10 mi
5:52 AM38 °FClear.5 mph65%30.47 "Hg10 mi
4:52 AM39 °FClear.No wind65%30.45 "Hg10 mi
Weather by CustomWeather, © 2014

See weather overviewHow to use our weather pages